Weather History for K9MN - January, 2014

Change the Weather History Date:

Monday, January 6, 2014

  Actual Average (KRST) Record (KRST)
Temperature  
Mean Temperature -18 °F 16 °F  
Max Temperature -12 °F 23 °F 46 °F (1933)
Min Temperature -23 °F 8 °F -28 °F (1912)
Degree Days  
Heating Degree Days 82 49  
Month to date heating degree days 294  
Since 1 July heating degree days 3372  
Cooling Degree Days 0 0  
Month to date cooling degree days 0  
Year to date cooling degree days 0  
Moisture  
Dew Point -26 °F    
Average Humidity 65    
Maximum Humidity 73    
Minimum Humidity 59    
Precipitation  
Precipitation 0.00 in 0.02 in 1.50 in (1888)
Month to date precipitation 0.16  
Year to date precipitation 0.16  
Snow  
Snow 0.00 in 0.30 in 5.60 in (1980)
Month to date snowfall 2.0  
Since 1 July snowfall 21.4  
Snow Depth -    
Sea Level Pressure  
Sea Level Pressure 30.19 in    
Wind  
Wind Speed 18 mph (West)    
Max Wind Speed 25 mph    
Max Gust Speed 34 mph    
Visibility 9 miles    
Events      
T = Trace of Precipitation, MM = Missing Value Source: NWS Daily Summary

Daily Weather History Graph

Daily Weather History Graph

Search for Another Location

Airport or City:

Trip Planner

Search our weather history database for the weather conditions in past years. The results will help you decide how hot, cold, wet, or windy it might be!

Date:

Astronomy

Jan. 06, 2014 Rise Set
Actual Time 7:44 AM CST 4:47 PM CST
Civil Twilight 7:11 AM CST 5:20 PM CST
Nautical Twilight 6:35 AM CST 5:56 PM CST
Astronomical Twilight 6:00 AM CST 6:31 PM CST
Moon 10:46 AM CST 11:36 PM CST
Length of Visible Light 10h 08m
Length of Day
9h 02m
Waxing Crescent, 35% of the Moon is Illuminated
Jan 6
Waxing Crescent
Jan 7
First Quarter
Jan 15
Full
Jan 23
Last Quarter
Jan 30
New

Hourly Weather History & Observations

Time (CST) Temp. Windchill Dew Point Humidity Pressure Visibility Wind Dir Wind Speed Gust Speed Precip Events Conditions
12:13 AM -19.1 °F -45.4 °F -29.2 °F 60% 30.22 in 10.0 mi WNW 17.3 mph 28.8 mph N/A   Scattered Clouds
12:33 AM -19.5 °F -49.2 °F -29.4 °F 60% 30.21 in 10.0 mi WNW 23.0 mph 28.8 mph N/A   Clear
12:52 AM -19.8 °F -46.3 °F -29.2 °F 62% 30.21 in 10.0 mi WNW 17.3 mph 27.6 mph N/A   Clear
1:13 AM -20.2 °F -47.5 °F -30.6 °F 59% 30.21 in 10.0 mi WNW 18.4 mph 29.9 mph N/A   Clear
1:33 AM -20.4 °F -47.0 °F -29.7 °F 62% 30.21 in 10.0 mi WNW 17.3 mph 26.5 mph N/A   Clear
1:53 AM -20.7 °F -44.1 °F -29.7 °F 63% 30.21 in 10.0 mi WNW 12.7 mph 26.5 mph N/A   Clear
2:13 AM -20.9 °F -50.5 °F -29.9 °F 63% 30.20 in 10.0 mi WNW 21.9 mph 25.3 mph N/A   Clear
2:33 AM -21.1 °F -47.2 °F -29.9 °F 64% 30.22 in 10.0 mi WNW 16.1 mph 25.3 mph N/A   Scattered Clouds
2:53 AM -21.8 °F -51.0 °F -31.5 °F 61% 30.22 in 10.0 mi WNW 20.7 mph 28.8 mph N/A   Clear
3:13 AM -21.6 °F -50.1 °F -31.2 °F 61% 30.22 in 10.0 mi WNW 19.6 mph 27.6 mph N/A   Clear
3:32 AM -22.2 °F -50.1 °F -32.4 °F 59% 30.22 in 10.0 mi WNW 18.4 mph 27.6 mph N/A   Clear
3:53 AM -21.8 °F -48.1 °F -29.9 °F 66% 30.22 in 10.0 mi WNW 16.1 mph 26.5 mph N/A   Mostly Cloudy
4:13 AM -22.2 °F -50.8 °F -31.4 °F 62% 30.22 in 10.0 mi WNW 19.6 mph 28.8 mph N/A   Overcast
4:33 AM -22.4 °F -49.6 °F -31.4 °F 63% 30.22 in 10.0 mi WNW 17.3 mph 24.2 mph N/A   Overcast
4:53 AM -22.4 °F -52.4 °F -31.2 °F 64% 30.21 in 10.0 mi WNW 21.9 mph 31.1 mph N/A   Mostly Cloudy
5:13 AM -22.9 °F -50.3 °F -31.9 °F 63% 30.21 in 10.0 mi WNW 17.3 mph 25.3 mph N/A   Scattered Clouds
5:33 AM -22.9 °F -54.9 °F -31.5 °F 64% 30.20 in 10.0 mi WNW 25.3 mph 34.5 mph N/A   Scattered Clouds
5:53 AM -22.9 °F -51.1 °F -31.4 °F 65% 30.21 in 10.0 mi WNW 18.4 mph 25.3 mph N/A   Scattered Clouds
6:13 AM -22.9 °F -51.1 °F -31.5 °F 64% 30.21 in 10.0 mi WNW 18.4 mph 27.6 mph N/A   Clear
6:33 AM -23.3 °F -51.5 °F -31.9 °F 64% 30.21 in 10.0 mi WNW 18.4 mph 26.5 mph N/A   Clear
6:53 AM -23.1 °F -51.3 °F -31.7 °F 64% 30.20 in 10.0 mi WNW 18.4 mph 25.3 mph N/A   Clear
7:13 AM -23.1 °F -50.5 °F -31.5 °F 65% 30.21 in 10.0 mi West 17.3 mph 29.9 mph N/A   Clear
7:33 AM -22.9 °F -51.1 °F -31.2 °F 65% 30.21 in 10.0 mi WNW 18.4 mph 27.6 mph N/A   Clear
7:53 AM -22.9 °F -50.3 °F -31.2 °F 65% 30.21 in 5.0 mi West 17.3 mph 25.3 mph N/A   Mostly Cloudy
8:13 AM -22.9 °F -50.3 °F -31.2 °F 65% 30.21 in 5.0 mi WNW 17.3 mph 26.5 mph N/A   Overcast
8:33 AM -22.0 °F -47.5 °F -30.1 °F 66% 30.22 in 7.0 mi WNW 15.0 mph 25.3 mph N/A   Overcast
8:53 AM -21.3 °F -43.8 °F -29.2 °F 67% 30.23 in 7.0 mi WNW 11.5 mph 23.0 mph N/A   Overcast
9:13 AM -20.6 °F -48.0 °F -28.8 °F 66% 30.22 in 10.0 mi West 18.4 mph 27.6 mph N/A   Overcast
9:33 AM -19.8 °F -46.3 °F -28.3 °F 65% 30.22 in 10.0 mi West 17.3 mph 25.3 mph N/A   Overcast
9:53 AM -19.5 °F -46.6 °F -28.5 °F 63% 30.22 in 10.0 mi West 18.4 mph 25.3 mph N/A   Overcast
10:12 AM -18.2 °F -42.7 °F -26.9 °F 65% 30.23 in 10.0 mi West 15.0 mph 23.0 mph N/A   Overcast
10:33 AM -18.4 °F -41.2 °F -27.6 °F 63% 30.23 in 10.0 mi WNW 12.7 mph 24.2 mph N/A   Overcast
10:53 AM -18.0 °F -46.7 °F -27.2 °F 63% 30.21 in 10.0 mi West 21.9 mph 31.1 mph N/A   Overcast
11:13 AM -17.1 °F -42.1 °F -25.8 °F 65% 30.21 in 7.0 mi West 16.1 mph 27.6 mph N/A   Overcast
11:33 AM -17.3 °F -47.4 °F -26.3 °F 64% 30.19 in 7.0 mi West 25.3 mph 32.2 mph N/A   Overcast
11:53 AM -16.8 °F -46.1 °F -26.1 °F 63% 30.18 in 4.0 mi West 24.2 mph 28.8 mph N/A   Overcast
12:13 PM -15.7 °F -42.3 °F -24.3 °F 65% 30.18 in 7.0 mi West 19.6 mph 26.5 mph N/A   Overcast
12:33 PM -16.1 °F -42.8 °F -26.3 °F 60% 30.18 in 10.0 mi West 19.6 mph 29.9 mph N/A   Overcast
12:53 PM -14.6 °F -42.7 °F -23.8 °F 63% 30.17 in 7.0 mi West 23.0 mph 29.9 mph N/A   Overcast
1:13 PM -14.3 °F -37.6 °F -23.6 °F 63% 30.17 in 10.0 mi West 15.0 mph 23.0 mph N/A   Overcast
1:33 PM -14.3 °F -41.7 °F -23.6 °F 63% 30.16 in 7.0 mi West 21.9 mph 28.8 mph N/A   Overcast
1:53 PM -13.9 °F -39.3 °F -23.4 °F 62% 30.16 in 10.0 mi West 18.4 mph 27.6 mph N/A   Overcast
2:13 PM -14.1 °F -38.9 °F -23.4 °F 63% 30.16 in 7.0 mi West 17.3 mph 29.9 mph N/A   Overcast
2:33 PM -14.1 °F -37.4 °F -23.4 °F 63% 30.16 in 7.0 mi West 15.0 mph 29.9 mph N/A   Overcast
2:53 PM -14.1 °F -40.8 °F -23.6 °F 62% 30.16 in 7.0 mi West 20.7 mph 28.8 mph N/A   Overcast
3:13 PM -13.9 °F -39.3 °F -24.0 °F 61% 30.17 in 10.0 mi West 18.4 mph 31.1 mph N/A   Mostly Cloudy
3:33 PM -13.9 °F -41.2 °F -23.1 °F 63% 30.17 in 5.0 mi West 21.9 mph 33.4 mph N/A   Overcast
3:53 PM -14.1 °F -40.8 °F -23.8 °F 62% 30.17 in 10.0 mi West 20.7 mph 32.2 mph N/A   Overcast
4:13 PM -13.9 °F -39.3 °F -22.0 °F 67% 30.17 in 10.0 mi West 18.4 mph 25.3 mph N/A   Overcast
4:33 PM -14.3 °F -39.1 °F -22.9 °F 65% 30.18 in 10.0 mi West 17.3 mph 26.5 mph N/A   Mostly Cloudy
4:53 PM -13.9 °F -37.2 °F -22.2 °F 66% 30.18 in 10.0 mi West 15.0 mph 21.9 mph N/A   Mostly Cloudy
5:13 PM -13.9 °F -40.6 °F -22.0 °F 67% 30.16 in 10.0 mi West 20.7 mph 26.5 mph N/A   Mostly Cloudy
5:33 PM -13.9 °F -37.2 °F -21.8 °F 68% 30.16 in 10.0 mi West 15.0 mph 26.5 mph N/A   Mostly Cloudy
5:53 PM -13.5 °F -38.9 °F -20.9 °F 70% 30.17 in 10.0 mi West 18.4 mph 25.3 mph N/A   Scattered Clouds
6:13 PM -14.1 °F -41.4 °F -22.0 °F 68% 30.16 in 10.0 mi West 21.9 mph 29.9 mph N/A   Clear
6:33 PM -14.1 °F -39.6 °F -22.4 °F 66% 30.17 in 10.0 mi West 18.4 mph 29.9 mph N/A   Clear
6:53 PM -14.1 °F -39.6 °F -22.7 °F 65% 30.17 in 10.0 mi West 18.4 mph 32.2 mph N/A   Mostly Cloudy
7:13 PM -13.5 °F -39.5 °F -21.5 °F 68% 30.17 in 10.0 mi West 19.6 mph 29.9 mph N/A   Overcast
7:33 PM -13.7 °F -37.7 °F -21.6 °F 68% 30.17 in 10.0 mi West 16.1 mph 27.6 mph N/A   Overcast
7:53 PM -13.5 °F -38.9 °F -21.1 °F 69% 30.17 in 10.0 mi West 18.4 mph 24.2 mph N/A   Overcast
8:13 PM -12.8 °F -35.8 °F -20.4 °F 69% 30.16 in 10.0 mi West 15.0 mph 23.0 mph N/A   Overcast
8:32 PM -13.0 °F -37.5 °F -20.7 °F 68% 30.16 in 10.0 mi West 17.3 mph 29.9 mph N/A   Overcast
8:53 PM -12.8 °F -37.3 °F -20.6 °F 68% 30.16 in 10.0 mi West 17.3 mph 25.3 mph N/A   Overcast
9:13 PM -12.8 °F -36.5 °F -20.6 °F 68% 30.16 in 10.0 mi West 16.1 mph 23.0 mph N/A   Mostly Cloudy
9:32 PM -13.0 °F -38.2 °F -20.6 °F 69% 30.15 in 10.0 mi West 18.4 mph 26.5 mph N/A   Scattered Clouds
9:53 PM -13.2 °F -37.0 °F -20.9 °F 68% 30.16 in 10.0 mi West 16.1 mph 25.3 mph N/A   Clear
10:13 PM -13.2 °F -36.2 °F -20.7 °F 69% 30.15 in 10.0 mi West 15.0 mph 25.3 mph N/A   Scattered Clouds
10:32 PM -13.0 °F -36.0 °F -20.2 °F 70% 30.14 in 10.0 mi West 15.0 mph 23.0 mph N/A   Clear
10:53 PM -13.2 °F -36.2 °F -20.0 °F 71% 30.14 in 10.0 mi West 15.0 mph 19.6 mph N/A   Clear
11:13 PM -13.4 °F -34.8 °F -20.0 °F 72% 30.15 in 10.0 mi West 12.7 mph 19.6 mph N/A   Clear
11:33 PM -13.2 °F -33.6 °F -19.5 °F 73% 30.14 in 10.0 mi West 11.5 mph 18.4 mph N/A   Clear
11:53 PM -13.0 °F -35.2 °F -19.5 °F 73% 30.13 in 10.0 mi West 13.8 mph 18.4 mph N/A   Clear